time, beta470, beta532, beta650
yyyy/mm/dd HH:MM:SS.fff, counts, counts, counts
2023/06/21 10:00:03.723, 116, 130, 115
2023/06/21 10:00:04.843, 113, 138, 94
2023/06/21 10:00:05.978, 111, 129, 99
2023/06/21 10:00:07.098, 110, 136, 83
2023/06/21 10:00:08.234, 109, 131, 81
2023/06/21 10:00:09.370, 110, 128, 83
2023/06/21 10:00:10.490, 110, 124, 78
2023/06/21 10:00:11.626, 115, 130, 80
2023/06/21 10:00:12.746, 112, 130, 84
2023/06/21 10:00:13.882, 110, 155, 81
2023/06/21 10:00:15.018, 108, 136, 84
2023/06/21 10:00:16.138, 112, 137, 85
2023/06/21 10:00:17.274, 114, 134, 89
2023/06/21 10:00:18.409, 111, 136, 516
2023/06/21 10:00:19.529, 111, 125, 82
2023/06/21 10:00:20.665, 113, 126, 79
2023/06/21 10:00:21.785, 112, 134, 82
2023/06/21 10:00:22.921, 110, 131, 79
2023/06/21 10:00:24.057, 106, 127, 82
2023/06/21 10:00:25.177, 111, 130, 83
2023/06/21 10:00:26.313, 113, 134, 80
2023/06/21 10:00:27.433, 110, 128, 84
2023/06/21 10:00:28.569, 117, 134, 94
2023/06/21 10:00:29.705, 113, 142, 87
2023/06/21 10:00:30.825, 113, 136, 87
2023/06/21 10:00:31.961, 113, 140, 85
2023/06/21 10:00:33.081, 113, 136, 84
2023/06/21 10:00:34.217, 110, 138, 91
2023/06/21 10:00:35.336, 114, 134, 88
2023/06/21 10:00:36.473, 118, 134, 84
2023/06/21 10:00:37.608, 116, 145, 89
2023/06/21 10:00:38.728, 114, 136, 89
2023/06/21 10:00:39.864, 122, 142, 88
2023/06/21 10:00:40.984, 119, 147, 87
2023/06/21 10:00:42.120, 120, 155, 90
2023/06/21 10:00:43.256, 116, 161, 89
2023/06/21 10:00:44.376, 120, 147, 92
2023/06/21 10:00:45.512, 123, 151, 99
2023/06/21 10:00:46.648, 124, 152, 92
2023/06/21 10:00:47.768, 124, 155, 96
2023/06/21 10:00:48.903, 129, 148, 96
2023/06/21 10:00:50.024, 128, 153, 92
2023/06/21 10:00:51.160, 125, 153, 94
2023/06/21 10:00:52.296, 126, 145, 92
2023/06/21 10:00:53.415, 125, 153, 88
2023/06/21 10:00:54.551, 120, 151, 90
2023/06/21 10:00:55.671, 122, 150, 85
2023/06/21 10:00:56.808, 120, 145, 92
2023/06/21 10:00:57.943, 120, 146, 92
2023/06/21 10:00:59.063, 125, 151, 92
2023/06/21 10:01:00.199, 125, 150, 93
2023/06/21 10:01:01.319, 128, 157, 91
2023/06/21 10:01:02.455, 133, 149, 90
2023/06/21 10:01:03.591, 125, 147, 98
2023/06/21 10:01:04.711, 123, 150, 92
2023/06/21 10:01:05.847, 118, 148, 92
2023/06/21 10:01:06.967, 119, 152, 91
2023/06/21 10:01:08.102, 125, 147, 89
2023/06/21 10:01:09.239, 120, 148, 90
2023/06/21 10:01:10.359, 122, 143, 86
2023/06/21 10:01:11.494, 121, 146, 92
2023/06/21 10:01:12.614, 119, 142, 88
2023/06/21 10:01:13.750, 120, 143, 88
2023/06/21 10:01:14.886, 117, 148, 88
2023/06/21 10:01:16.006, 121, 148, 89
2023/06/21 10:01:17.142, 121, 142, 88
2023/06/21 10:01:18.278, 121, 141, 96
2023/06/21 10:01:19.398, 122, 143, 89
2023/06/21 10:01:20.534, 117, 142, 84
2023/06/21 10:01:21.654, 125, 140, 85
2023/06/21 10:01:22.790, 123, 144, 87
2023/06/21 10:01:23.926, 116, 142, 88
2023/06/21 10:01:25.046, 118, 147, 88
2023/06/21 10:01:26.182, 116, 146, 89
2023/06/21 10:01:27.301, 118, 165, 88
2023/06/21 10:01:28.437, 123, 144, 87
2023/06/21 10:01:29.573, 117, 145, 88
2023/06/21 10:01:30.693, 117, 135, 84
2023/06/21 10:01:31.829, 116, 139, 86
2023/06/21 10:01:32.949, 114, 141, 83
2023/06/21 10:01:34.085, 119, 143, 85
2023/06/21 10:01:35.205, 120, 136, 83
2023/06/21 10:01:36.341, 115, 136, 84
2023/06/21 10:01:37.477, 115, 135, 87
2023/06/21 10:01:38.597, 116, 133, 83
2023/06/21 10:01:39.733, 114, 131, 82
2023/06/21 10:01:40.853, 125, 138, 86
2023/06/21 10:01:41.989, 114, 134, 83
2023/06/21 10:01:43.124, 116, 133, 80
2023/06/21 10:01:44.244, 113, 131, 82
2023/06/21 10:01:45.380, 116, 133, 83
2023/06/21 10:01:46.516, 113, 130, 85
2023/06/21 10:01:47.636, 112, 132, 84
2023/06/21 10:01:48.772, 112, 136, 84
2023/06/21 10:01:49.892, 114, 132, 82
2023/06/21 10:01:51.028, 114, 130, 83
2023/06/21 10:01:52.164, 112, 134, 81
2023/06/21 10:01:53.284, 112, 123, 77
2023/06/21 10:01:54.420, 110, 125, 79
2023/06/21 10:01:55.540, 112, 134, 82
2023/06/21 10:01:56.675, 114, 133, 84
2023/06/21 10:01:57.812, 113, 132, 78
2023/06/21 10:01:58.932, 114, 126, 82
2023/06/21 10:02:00.067, 109, 130, 79
2023/06/21 10:02:01.187, 108, 128, 86
2023/06/21 10:02:02.323, 111, 131, 79
2023/06/21 10:02:03.459, 109, 132, 78
2023/06/21 10:02:04.579, 105, 126, 78
2023/06/21 10:02:05.715, 107, 125, 78
2023/06/21 10:02:06.835, 109, 125, 83
2023/06/21 10:02:07.971, 107, 126, 88
2023/06/21 10:02:09.107, 115, 124, 77
2023/06/21 10:02:10.227, 110, 128, 79
2023/06/21 10:02:11.362, 112, 125, 80
2023/06/21 10:02:12.483, 110, 126, 81
2023/06/21 10:02:13.619, 108, 125, 86
2023/06/21 10:02:14.754, 111, 127, 81
2023/06/21 10:02:15.874, 108, 124, 78
2023/06/21 10:02:17.010, 107, 125, 82
2023/06/21 10:02:18.146, 108, 128, 84
2023/06/21 10:02:19.266, 108, 123, 78
2023/06/21 10:02:20.402, 111, 125, 77
2023/06/21 10:02:21.523, 106, 122, 78
2023/06/21 10:02:22.658, 105, 123, 79
2023/06/21 10:02:23.794, 108, 121, 78
2023/06/21 10:02:24.914, 108, 122, 82
2023/06/21 10:02:26.050, 107, 123, 78
2023/06/21 10:02:27.170, 103, 124, 77
2023/06/21 10:02:28.306, 104, 125, 81
2023/06/21 10:02:29.442, 106, 124, 77
2023/06/21 10:02:30.562, 107, 126, 79
2023/06/21 10:02:31.697, 105, 122, 78
2023/06/21 10:02:32.817, 105, 120, 78
2023/06/21 10:02:33.953, 109, 123, 77
2023/06/21 10:02:35.073, 105, 124, 79
2023/06/21 10:02:36.209, 109, 127, 75
2023/06/21 10:02:37.345, 107, 119, 77
2023/06/21 10:02:38.465, 106, 123, 78
2023/06/21 10:02:39.601, 105, 120, 75
2023/06/21 10:02:40.721, 104, 117, 76
2023/06/21 10:02:41.857, 104, 120, 75
2023/06/21 10:02:42.993, 104, 121, 77
2023/06/21 10:02:44.113, 107, 117, 75
2023/06/21 10:02:45.249, 103, 114, 82
2023/06/21 10:02:46.385, 103, 119, 77
2023/06/21 10:02:47.505, 132, 119, 75
2023/06/21 10:02:48.641, 104, 118, 76
2023/06/21 10:02:49.761, 103, 122, 78
2023/06/21 10:02:50.896, 812, 121, 81
2023/06/21 10:02:52.032, 146, 120, 75
2023/06/21 10:02:53.152, 106, 118, 75
2023/06/21 10:02:54.288, 102, 121, 73
2023/06/21 10:02:55.408, 287, 118, 76
2023/06/21 10:02:56.544, 101, 115, 82
2023/06/21 10:02:57.680, 101, 119, 76
2023/06/21 10:02:58.800, 104, 116, 74
2023/06/21 10:02:59.936, 112, 111, 71
2023/06/21 10:03:01.056, 852, 114, 74
2023/06/21 10:03:02.192, 101, 118, 77
2023/06/21 10:03:03.328, 100, 116, 123
2023/06/21 10:03:04.447, 103, 113, 74
2023/06/21 10:03:05.584, 101, 115, 75
2023/06/21 10:03:06.719, 105, 117, 74
2023/06/21 10:03:07.839, 102, 115, 71
2023/06/21 10:03:08.975, 101, 118, 73
2023/06/21 10:03:10.095, 101, 133, 73
2023/06/21 10:03:11.231, 98, 183, 72
2023/06/21 10:03:12.351, 97, 112, 73
2023/06/21 10:03:13.487, 105, 110, 77
2023/06/21 10:03:14.623, 103, 110, 73
2023/06/21 10:03:15.743, 98, 109, 75
2023/06/21 10:03:16.879, 101, 111, 74
2023/06/21 10:03:17.999, 102, 113, 72
2023/06/21 10:03:19.134, 95, 112, 77
2023/06/21 10:03:20.271, 99, 111, 71
2023/06/21 10:03:21.390, 102, 114, 74
2023/06/21 10:03:22.526, 100, 113, 72
2023/06/21 10:03:23.646, 98, 133, 74
2023/06/21 10:03:24.782, 97, 117, 74
2023/06/21 10:03:25.902, 101, 116, 75
2023/06/21 10:03:27.038, 97, 110, 75
2023/06/21 10:03:28.174, 98, 111, 73
2023/06/21 10:03:29.294, 98, 114, 73
2023/06/21 10:03:30.430, 96, 127, 74
2023/06/21 10:03:31.550, 97, 110, 74
2023/06/21 10:03:32.686, 97, 109, 73
2023/06/21 10:03:33.805, 97, 109, 73
2023/06/21 10:03:34.942, 98, 113, 72
2023/06/21 10:03:36.062, 98, 108, 73
2023/06/21 10:03:37.198, 99, 123, 74
2023/06/21 10:03:38.317, 94, 173, 70
2023/06/21 10:03:39.454, 95, 140, 70
2023/06/21 10:03:40.589, 97, 130, 71
2023/06/21 10:03:41.709, 98, 212, 71
2023/06/21 10:03:42.845, 98, 126, 72
2023/06/21 10:03:43.965, 97, 127, 71
2023/06/21 10:03:45.101, 95, 129, 71
2023/06/21 10:03:46.221, 95, 138, 70
2023/06/21 10:03:47.357, 96, 129, 72
2023/06/21 10:03:48.477, 96, 133, 68
2023/06/21 10:03:49.613, 96, 154, 72
2023/06/21 10:03:50.749, 99, 134, 75
2023/06/21 10:03:51.868, 96, 131, 72
2023/06/21 10:03:53.005, 94, 122, 69
2023/06/21 10:03:54.124, 97, 122, 69
2023/06/21 10:03:55.260, 99, 119, 75
2023/06/21 10:03:56.380, 95, 124, 73
2023/06/21 10:03:57.516, 97, 120, 69
2023/06/21 10:03:58.636, 94, 122, 71
2023/06/21 10:03:59.772, 96, 121, 71
2023/06/21 10:04:00.908, 99, 132, 71
2023/06/21 10:04:02.027, 98, 133, 70
2023/06/21 10:04:03.164, 95, 125, 71
2023/06/21 10:04:04.284, 96, 129, 67
2023/06/21 10:04:05.420, 98, 122, 72
2023/06/21 10:04:06.539, 94, 121, 71
2023/06/21 10:04:07.675, 96, 126, 71
2023/06/21 10:04:08.795, 96, 124, 69
2023/06/21 10:04:09.932, 93, 124, 72
2023/06/21 10:04:11.067, 95, 125, 69
2023/06/21 10:04:12.187, 95, 126, 68
2023/06/21 10:04:13.323, 93, 126, 72
2023/06/21 10:04:14.443, 93, 127, 71
2023/06/21 10:04:15.579, 103, 130, 70
2023/06/21 10:04:16.699, 96, 123, 67
2023/06/21 10:04:17.835, 93, 125, 71
2023/06/21 10:04:18.955, 94, 129, 67
2023/06/21 10:04:20.091, 92, 138, 66
2023/06/21 10:04:21.227, 96, 143, 68
2023/06/21 10:04:22.347, 91, 144, 69
2023/06/21 10:04:23.483, 94, 154, 68
2023/06/21 10:04:24.602, 94, 158, 68
2023/06/21 10:04:25.739, 95, 159, 67
2023/06/21 10:04:26.859, 92, 150, 69
2023/06/21 10:04:27.994, 94, 132, 69
2023/06/21 10:04:29.114, 90, 139, 68
2023/06/21 10:04:30.250, 95, 129, 70
2023/06/21 10:04:31.370, 94, 134, 69
2023/06/21 10:04:32.506, 92, 139, 65
2023/06/21 10:04:33.642, 93, 129, 66
2023/06/21 10:04:34.762, 92, 117, 66
2023/06/21 10:04:35.898, 94, 127, 68
2023/06/21 10:04:37.018, 91, 127, 68
2023/06/21 10:04:38.154, 94, 125, 69
2023/06/21 10:04:39.274, 92, 126, 64
2023/06/21 10:04:40.410, 91, 123, 68
2023/06/21 10:04:41.529, 92, 124, 70
2023/06/21 10:04:42.666, 94, 128, 64
2023/06/21 10:04:43.802, 91, 135, 67
2023/06/21 10:04:44.922, 92, 126, 70
2023/06/21 10:04:46.057, 94, 120, 67
2023/06/21 10:04:47.177, 92, 126, 67
2023/06/21 10:04:48.313, 92, 127, 71
2023/06/21 10:04:49.433, 94, 123, 69
2023/06/21 10:04:50.569, 93, 119, 68
2023/06/21 10:04:51.688, 91, 126, 68
2023/06/21 10:04:52.825, 89, 121, 68
2023/06/21 10:04:53.961, 91, 117, 67
2023/06/21 10:04:55.081, 91, 118, 67
2023/06/21 10:04:56.216, 93, 119, 65
2023/06/21 10:04:57.337, 93, 121, 68
2023/06/21 10:04:58.473, 91, 117, 70
2023/06/21 10:04:59.593, 92, 116, 69
2023/06/21 10:05:00.728, 90, 124, 67
2023/06/21 10:05:01.848, 89, 127, 67
2023/06/21 10:05:02.984, 91, 137, 65
2023/06/21 10:05:04.120, 91, 113, 67
2023/06/21 10:05:05.240, 91, 112, 65
2023/06/21 10:05:06.376, 90, 114, 66
2023/06/21 10:05:07.496, 91, 124, 66
2023/06/21 10:05:08.632, 91, 112, 64
2023/06/21 10:05:09.752, 93, 114, 65
2023/06/21 10:05:10.888, 90, 117, 69
2023/06/21 10:05:12.008, 92, 115, 70
2023/06/21 10:05:13.144, 92, 113, 71
2023/06/21 10:05:14.280, 90, 113, 66
2023/06/21 10:05:15.399, 91, 118, 67
2023/06/21 10:05:16.536, 91, 118, 65
2023/06/21 10:05:17.655, 87, 121, 67
2023/06/21 10:05:18.791, 90, 120, 67
2023/06/21 10:05:19.911, 91, 123, 65
2023/06/21 10:05:21.047, 91, 122, 69
2023/06/21 10:05:22.167, 91, 119, 66
2023/06/21 10:05:23.303, 90, 111, 69
2023/06/21 10:05:24.439, 92, 111, 65
2023/06/21 10:05:25.559, 91, 114, 65
2023/06/21 10:05:26.695, 92, 114, 69
2023/06/21 10:05:27.815, 91, 122, 65
2023/06/21 10:05:28.951, 90, 134, 64
2023/06/21 10:05:30.071, 92, 141, 67
2023/06/21 10:05:31.207, 89, 134, 64
2023/06/21 10:05:32.327, 91, 117, 65
2023/06/21 10:05:33.463, 90, 115, 68
2023/06/21 10:05:34.582, 92, 112, 65
2023/06/21 10:05:35.718, 89, 113, 64
2023/06/21 10:05:36.838, 91, 123, 64
2023/06/21 10:05:37.974, 87, 116, 64
2023/06/21 10:05:39.110, 88, 114, 64
2023/06/21 10:05:40.230, 89, 114, 64
2023/06/21 10:05:41.366, 91, 113, 62
2023/06/21 10:05:42.485, 89, 99, 65
2023/06/21 10:05:43.622, 92, 100, 69
2023/06/21 10:05:44.742, 88, 100, 66
2023/06/21 10:05:45.878, 89, 101, 64
2023/06/21 10:05:46.998, 86, 105, 66
2023/06/21 10:05:48.134, 91, 105, 65
2023/06/21 10:05:49.269, 94, 104, 66
2023/06/21 10:05:50.389, 89, 102, 65
2023/06/21 10:05:51.525, 88, 102, 64
2023/06/21 10:05:52.645, 87, 100, 66
2023/06/21 10:05:53.781, 90, 98, 66
2023/06/21 10:05:54.901, 88, 98, 64
2023/06/21 10:05:56.037, 89, 94, 63
2023/06/21 10:05:57.157, 90, 108, 64
2023/06/21 10:05:58.293, 90, 140, 67
2023/06/21 10:05:59.413, 90, 95, 124
2023/06/21 10:06:00.549, 88, 96, 64
2023/06/21 10:06:01.669, 89, 94, 67
2023/06/21 10:06:02.805, 85, 95, 66
2023/06/21 10:06:03.925, 90, 93, 63
2023/06/21 10:06:05.060, 88, 94, 64
2023/06/21 10:06:06.181, 87, 94, 68
2023/06/21 10:06:07.316, 90, 94, 63
2023/06/21 10:06:08.436, 87, 95, 65
2023/06/21 10:06:09.572, 93, 96, 67
2023/06/21 10:06:10.692, 97, 97, 63
2023/06/21 10:06:11.828, 288, 93, 65
2023/06/21 10:06:12.964, 86, 93, 67
2023/06/21 10:06:14.084, 88, 93, 64
2023/06/21 10:06:15.220, 89, 94, 65
2023/06/21 10:06:16.340, 89, 94, 65
2023/06/21 10:06:17.476, 90, 92, 66
2023/06/21 10:06:18.596, 91, 93, 66
2023/06/21 10:06:19.732, 87, 96, 61
2023/06/21 10:06:20.852, 87, 130, 66
2023/06/21 10:06:21.988, 88, 95, 67
2023/06/21 10:06:23.108, 86, 94, 62
2023/06/21 10:06:24.243, 86, 95, 64
2023/06/21 10:06:25.363, 88, 94, 66
2023/06/21 10:06:26.499, 88, 92, 65
2023/06/21 10:06:27.619, 88, 93, 62
2023/06/21 10:06:28.755, 87, 95, 65
2023/06/21 10:06:29.875, 89, 95, 64
2023/06/21 10:06:31.011, 88, 96, 65
2023/06/21 10:06:32.131, 88, 95, 62
2023/06/21 10:06:33.267, 89, 90, 62
2023/06/21 10:06:34.387, 86, 92, 64
2023/06/21 10:06:35.522, 87, 89, 62
2023/06/21 10:06:36.643, 87, 92, 61
2023/06/21 10:06:37.778, 89, 92, 66
2023/06/21 10:06:38.898, 87, 94, 62
2023/06/21 10:06:40.034, 87, 93, 67
2023/06/21 10:06:41.154, 90, 93, 63
2023/06/21 10:06:42.290, 89, 92, 64
2023/06/21 10:06:43.410, 86, 93, 85
2023/06/21 10:06:44.546, 89, 97, 66
2023/06/21 10:06:45.666, 88, 94, 67
2023/06/21 10:06:46.802, 86, 93, 66
2023/06/21 10:06:47.922, 86, 92, 63
2023/06/21 10:06:49.058, 88, 96, 63
2023/06/21 10:06:50.178, 87, 90, 63
2023/06/21 10:06:51.314, 88, 91, 65
2023/06/21 10:06:52.434, 88, 90, 68
2023/06/21 10:06:53.569, 120, 88, 64
2023/06/21 10:06:54.689, 102, 90, 63
2023/06/21 10:06:55.825, 90, 93, 64
2023/06/21 10:06:56.945, 89, 92, 64
2023/06/21 10:06:58.081, 87, 90, 62
2023/06/21 10:06:59.201, 148, 89, 62
2023/06/21 10:07:00.337, 213, 92, 64
2023/06/21 10:07:01.457, 108, 89, 63
2023/06/21 10:07:02.593, 104, 90, 63
2023/06/21 10:07:03.713, 152, 92, 62
2023/06/21 10:07:04.849, 149, 89, 63
2023/06/21 10:07:05.985, 139, 91, 63
2023/06/21 10:07:07.105, 119, 92, 64
2023/06/21 10:07:08.241, 116, 90, 66
2023/06/21 10:07:09.360, 120, 90, 63
2023/06/21 10:07:10.497, 120, 92, 65
2023/06/21 10:07:11.616, 121, 91, 64
2023/06/21 10:07:12.752, 130, 89, 63
2023/06/21 10:07:13.872, 132, 88, 65
2023/06/21 10:07:15.008, 126, 90, 59
2023/06/21 10:07:16.144, 128, 91, 63
2023/06/21 10:07:17.264, 132, 90, 64
2023/06/21 10:07:18.400, 136, 91, 63
2023/06/21 10:07:19.520, 138, 89, 63
2023/06/21 10:07:20.656, 132, 89, 63
2023/06/21 10:07:21.776, 141, 90, 61
2023/06/21 10:07:22.912, 138, 91, 65
2023/06/21 10:07:24.032, 127, 88, 63
2023/06/21 10:07:25.168, 124, 87, 61
2023/06/21 10:07:26.304, 122, 90, 63
2023/06/21 10:07:27.423, 149, 89, 60
2023/06/21 10:07:28.559, 191, 89, 63
2023/06/21 10:07:29.679, 185, 91, 65
2023/06/21 10:07:30.815, 176, 91, 63
2023/06/21 10:07:31.935, 128, 90, 62
2023/06/21 10:07:33.071, 133, 90, 63
2023/06/21 10:07:34.191, 142, 92, 62
2023/06/21 10:07:35.327, 129, 89, 66
2023/06/21 10:07:36.447, 129, 87, 62
2023/06/21 10:07:37.583, 118, 89, 64
2023/06/21 10:07:38.719, 111, 90, 68
2023/06/21 10:07:39.839, 103, 90, 63
2023/06/21 10:07:40.975, 105, 87, 62
2023/06/21 10:07:42.095, 118, 90, 59
2023/06/21 10:07:43.231, 122, 90, 65
2023/06/21 10:07:44.351, 134, 90, 64
2023/06/21 10:07:45.486, 120, 91, 63
2023/06/21 10:07:46.605, 165, 87, 62
2023/06/21 10:07:47.742, 181, 89, 64
2023/06/21 10:07:48.878, 274, 91, 62
2023/06/21 10:07:49.999, 200, 89, 62
2023/06/21 10:07:51.134, 87, 90, 67
2023/06/21 10:07:52.254, 87, 87, 67
2023/06/21 10:07:53.390, 86, 88, 62
2023/06/21 10:07:54.510, 85, 87, 65
2023/06/21 10:07:55.646, 84, 88, 65
2023/06/21 10:07:56.766, 84, 89, 64
2023/06/21 10:07:57.902, 83, 88, 65
2023/06/21 10:07:59.022, 86, 88, 67
2023/06/21 10:08:00.157, 85, 91, 64
2023/06/21 10:08:01.278, 85, 88, 64
2023/06/21 10:08:02.413, 86, 89, 61
2023/06/21 10:08:03.533, 88, 89, 63
2023/06/21 10:08:04.669, 87, 89, 64
2023/06/21 10:08:05.789, 88, 87, 63
2023/06/21 10:08:06.925, 84, 89, 63
2023/06/21 10:08:08.045, 85, 88, 66
2023/06/21 10:08:09.181, 88, 91, 65
2023/06/21 10:08:10.301, 87, 89, 61
2023/06/21 10:08:11.437, 88, 89, 65
2023/06/21 10:08:12.557, 85, 91, 63
2023/06/21 10:08:13.693, 87, 88, 62
2023/06/21 10:08:14.813, 88, 89, 62
2023/06/21 10:08:15.948, 89, 91, 61
2023/06/21 10:08:17.069, 87, 88, 63
2023/06/21 10:08:18.204, 87, 88, 68
2023/06/21 10:08:19.324, 87, 91, 65
2023/06/21 10:08:20.460, 86, 88, 67
2023/06/21 10:08:21.580, 85, 87, 69
2023/06/21 10:08:22.716, 84, 91, 64
2023/06/21 10:08:23.836, 88, 89, 62
2023/06/21 10:08:24.972, 88, 89, 64
2023/06/21 10:08:26.092, 86, 89, 64
2023/06/21 10:08:27.228, 86, 92, 62
2023/06/21 10:08:28.348, 85, 88, 67
2023/06/21 10:08:29.484, 87, 89, 61
2023/06/21 10:08:30.604, 83, 89, 61
2023/06/21 10:08:31.740, 85, 89, 62
2023/06/21 10:08:32.860, 86, 130, 62
2023/06/21 10:08:33.995, 86, 89, 79
2023/06/21 10:08:35.116, 86, 88, 63
2023/06/21 10:08:36.251, 86, 90, 62
2023/06/21 10:08:37.371, 86, 88, 63
2023/06/21 10:08:38.507, 87, 90, 61
2023/06/21 10:08:39.627, 88, 90, 64
2023/06/21 10:08:40.763, 85, 95, 61
2023/06/21 10:08:41.883, 85, 90, 63
2023/06/21 10:08:43.019, 85, 90, 60
2023/06/21 10:08:44.139, 85, 87, 62
2023/06/21 10:08:45.275, 87, 87, 63
2023/06/21 10:08:46.395, 86, 89, 61
2023/06/21 10:08:47.531, 87, 84, 61
2023/06/21 10:08:48.651, 88, 86, 61
2023/06/21 10:08:49.787, 87, 85, 62
2023/06/21 10:08:50.906, 86, 86, 60
2023/06/21 10:08:52.042, 84, 87, 64
2023/06/21 10:08:53.162, 86, 88, 59
2023/06/21 10:08:54.298, 99, 90, 61
2023/06/21 10:08:55.418, 86, 88, 64
2023/06/21 10:08:56.554, 83, 89, 62
2023/06/21 10:08:57.674, 84, 86, 61
2023/06/21 10:08:58.810, 86, 89, 65
2023/06/21 10:08:59.930, 84, 85, 62
2023/06/21 10:09:01.066, 85, 89, 64
2023/06/21 10:09:02.186, 82, 85, 61
2023/06/21 10:09:03.322, 85, 87, 65
2023/06/21 10:09:04.442, 85, 90, 64
2023/06/21 10:09:05.578, 87, 89, 62
2023/06/21 10:09:06.697, 86, 85, 62
2023/06/21 10:09:07.833, 85, 86, 64
2023/06/21 10:09:08.953, 95, 87, 63
2023/06/21 10:09:10.089, 87, 88, 59
2023/06/21 10:09:11.209, 84, 87, 60
2023/06/21 10:09:12.345, 86, 90, 63
2023/06/21 10:09:13.465, 86, 89, 58
2023/06/21 10:09:14.600, 85, 87, 60
2023/06/21 10:09:15.721, 84, 87, 59
2023/06/21 10:09:16.857, 88, 89, 63
2023/06/21 10:09:17.977, 93, 89, 61
2023/06/21 10:09:19.113, 84, 86, 63
2023/06/21 10:09:20.233, 85, 87, 62
2023/06/21 10:09:21.368, 86, 85, 63
2023/06/21 10:09:22.488, 84, 87, 61
2023/06/21 10:09:23.624, 86, 87, 60
2023/06/21 10:09:24.744, 84, 88, 62
2023/06/21 10:09:25.880, 82, 88, 62
2023/06/21 10:09:26.000, 83, 88, 59
2023/06/21 10:09:28.136, 85, 88, 61
2023/06/21 10:09:29.256, 86, 86, 61
2023/06/21 10:09:30.392, 86, 90, 60
2023/06/21 10:09:31.512, 86, 89, 62
2023/06/21 10:09:32.648, 84, 88, 61
2023/06/21 10:09:33.768, 84, 87, 62
2023/06/21 10:09:34.904, 86, 87, 62
2023/06/21 10:09:36.024, 84, 89, 62
2023/06/21 10:09:37.160, 85, 88, 61
2023/06/21 10:09:38.280, 84, 93, 61
2023/06/21 10:09:39.415, 86, 84, 61
2023/06/21 10:09:40.535, 84, 87, 62
2023/06/21 10:09:41.671, 90, 88, 64
2023/06/21 10:09:42.791, 85, 87, 62
2023/06/21 10:09:43.927, 85, 85, 61
2023/06/21 10:09:45.047, 86, 86, 61
2023/06/21 10:09:46.183, 86, 86, 61
2023/06/21 10:09:47.303, 85, 87, 59
2023/06/21 10:09:48.439, 85, 87, 61
2023/06/21 10:09:49.559, 86, 87, 64
2023/06/21 10:09:50.695, 84, 89, 64
2023/06/21 10:09:51.815, 83, 89, 60
2023/06/21 10:09:52.951, 84, 85, 62
2023/06/21 10:09:54.070, 83, 89, 65
2023/06/21 10:09:55.207, 84, 88, 59
2023/06/21 10:09:56.326, 85, 88, 61
2023/06/21 10:09:57.462, 83, 86, 61
2023/06/21 10:09:58.582, 80, 88, 61
2023/06/21 10:09:59.718, 84, 88, 59
2023/06/21 10:10:00.838, 84, 86, 63
2023/06/21 10:10:01.974, 84, 87, 61
2023/06/21 10:10:03.094, 85, 86, 62
2023/06/21 10:10:04.230, 86, 86, 62
2023/06/21 10:10:05.350, 87, 86, 67
2023/06/21 10:10:06.486, 82, 90, 65
2023/06/21 10:10:07.606, 82, 89, 62
2023/06/21 10:10:08.742, 87, 89, 61
2023/06/21 10:10:09.862, 86, 86, 63
2023/06/21 10:10:10.998, 85, 93, 63
2023/06/21 10:10:12.118, 83, 89, 66
2023/06/21 10:10:13.253, 85, 86, 61
2023/06/21 10:10:14.373, 86, 88, 64
2023/06/21 10:10:15.509, 85, 87, 62
2023/06/21 10:10:16.629, 85, 89, 62
2023/06/21 10:10:17.765, 86, 91, 66
2023/06/21 10:10:18.885, 88, 93, 63
2023/06/21 10:10:20.021, 94, 94, 63
2023/06/21 10:10:21.141, 90, 92, 66
2023/06/21 10:10:22.277, 88, 97, 68
2023/06/21 10:10:23.397, 92, 93, 70
2023/06/21 10:10:24.533, 92, 94, 65
2023/06/21 10:10:25.653, 93, 99, 68
2023/06/21 10:10:26.789, 91, 97, 68
2023/06/21 10:10:27.908, 91, 96, 65
2023/06/21 10:10:29.044, 91, 99, 65
2023/06/21 10:10:30.164, 93, 97, 66
2023/06/21 10:10:31.300, 92, 105, 72
2023/06/21 10:10:32.436, 91, 100, 69
2023/06/21 10:10:33.556, 95, 101, 70
2023/06/21 10:10:34.692, 99, 100, 73
2023/06/21 10:10:35.812, 93, 100, 84
2023/06/21 10:10:36.948, 94, 102, 67
2023/06/21 10:10:38.068, 93, 166, 69
2023/06/21 10:10:39.204, 94, 104, 72
2023/06/21 10:10:40.324, 96, 104, 77
2023/06/21 10:10:41.460, 95, 114, 86
2023/06/21 10:10:42.580, 95, 109, 72
2023/06/21 10:10:43.715, 99, 104, 72
2023/06/21 10:10:44.851, 97, 103, 72
2023/06/21 10:10:45.971, 96, 104, 69
2023/06/21 10:10:47.107, 98, 104, 72
2023/06/21 10:10:48.227, 97, 105, 73
2023/06/21 10:10:49.363, 100, 110, 73
2023/06/21 10:10:50.483, 100, 123, 72
2023/06/21 10:10:51.619, 99, 107, 72
2023/06/21 10:10:52.755, 99, 109, 72
2023/06/21 10:10:53.875, 99, 111, 75
2023/06/21 10:10:55.011, 99, 111, 81
2023/06/21 10:10:56.131, 97, 110, 71
2023/06/21 10:10:57.267, 100, 329, 74
2023/06/21 10:10:58.387, 102, 143, 72
2023/06/21 10:10:59.523, 113, 118, 75
2023/06/21 10:11:00.658, 100, 115, 72
2023/06/21 10:11:01.778, 100, 105, 74
2023/06/21 10:11:02.914, 102, 110, 73
2023/06/21 10:11:04.034, 99, 115, 73
2023/06/21 10:11:05.169, 102, 112, 74
2023/06/21 10:11:06.306, 103, 118, 76
2023/06/21 10:11:07.426, 102, 143, 78
2023/06/21 10:11:08.562, 99, 114, 82
2023/06/21 10:11:09.681, 101, 111, 80
2023/06/21 10:11:10.818, 107, 116, 79
2023/06/21 10:11:11.954, 102, 118, 76
2023/06/21 10:11:13.074, 103, 117, 74
2023/06/21 10:11:14.210, 101, 116, 79
2023/06/21 10:11:15.330, 100, 116, 76
2023/06/21 10:11:16.466, 101, 119, 77
2023/06/21 10:11:17.601, 101, 114, 76
2023/06/21 10:11:18.721, 101, 113, 76
2023/06/21 10:11:19.857, 104, 119, 82
2023/06/21 10:11:20.977, 109, 134, 79
2023/06/21 10:11:22.113, 104, 126, 74
2023/06/21 10:11:23.249, 106, 119, 81
2023/06/21 10:11:24.369, 107, 117, 76
2023/06/21 10:11:25.505, 105, 121, 78
2023/06/21 10:11:26.625, 103, 117, 81
2023/06/21 10:11:27.761, 108, 126, 76
2023/06/21 10:11:28.897, 109, 120, 78
2023/06/21 10:11:30.017, 102, 126, 80
2023/06/21 10:11:31.153, 105, 121, 80
2023/06/21 10:11:32.272, 106, 120, 79
2023/06/21 10:11:33.409, 103, 131, 83
2023/06/21 10:11:34.545, 107, 124, 78
2023/06/21 10:11:35.664, 103, 120, 80
2023/06/21 10:11:36.800, 109, 123, 79
2023/06/21 10:11:37.920, 106, 122, 77
2023/06/21 10:11:39.056, 104, 125, 78
2023/06/21 10:11:40.192, 140, 148, 77
2023/06/21 10:11:41.312, 106, 125, 75
2023/06/21 10:11:42.448, 108, 122, 77
2023/06/21 10:11:43.568, 106, 122, 81
2023/06/21 10:11:44.703, 105, 152, 79
2023/06/21 10:11:45.840, 107, 126, 79
2023/06/21 10:11:46.960, 106, 128, 78
2023/06/21 10:11:48.095, 106, 121, 81
2023/06/21 10:11:49.216, 109, 126, 82
2023/06/21 10:11:50.351, 123, 121, 80
2023/06/21 10:11:51.487, 109, 142, 80